[[{"header":{"parameterUnit":"m.s-1","parameterCategory":2,"la1":30.2991,"la2":30.254,"lo1":-89.0895,"lo2":-89.0444,"dy":0.0017,"dx":0.0017,"nx":28,"ny":28,"refTime":"2024-06-23T03:00:00:Z","depth":"0","parameterNumber":2,"parameterNumberName":"U-component_of_CURRENTS"},"data":[0,0,0,0,0,0,0,0,0,0,0,0,0,0,0,0,0,0,0,0,0,0,0,0,0,0,0,0,0,0,0,0,0,0,0,0,0,0,0,0,0,0,0,0,0,0,0,0,0,0,0,0,0,0,0,0,0,0,0.4367,0.4369,0,0.4504,0.4505,0.4506,0.4587,0.4588,0.4589,0.459,0.4615,0.4615,0.4615,0,0,0,0,0,0,0,0,0,0,0,0,0,0.4175,0.4178,0.4367,0.4369,0.4371,0.4504,0.4505,0.4507,0.4587,0.4588,0.4589,0.459,0.4615,0.4615,0.4615,0,0,0,0,0,0,0,0,0,0,0,0,0,0.4274,0.4179,0.4366,0.4432,0.444,0.4504,0.4505,0.4507,0.4587,0.4588,0.4589,0.4591,0.4616,0.4615,0.4615,0.4586,0,0,0.4614,0.4614,0,0,0,0,0,0,0,0,0.4268,0.428,0.442,0.4428,0.4437,0.4536,0.4448,0.453,0.4586,0.4524,0.459,0.4591,0.4581,0.4584,0.4599,0.4587,0.4588,0.4614,0.4614,0.4614,0.4614,0,0,0,0,0,0,0,0.4261,0.4275,0.4415,0.4423,0.4433,0.4456,0.4471,0.4464,0.4536,0.453,0.4537,0.4563,0.4585,0.4599,0.46,0.4588,0.4614,0.4614,0.4614,0.4614,0.4579,0.4578,0,0,0,0,0,0,0.4256,0.4268,0.4411,0.442,0.4361,0.4459,0.4475,0.4497,0.4539,0.455,0.4561,0.4566,0.4599,0.4601,0.4601,0.4594,0.4614,0.4614,0.4613,0.458,0.4579,0.4578,0,0,0,0,0,0,0.4251,0.4267,0.4405,0.4352,0.4372,0.4461,0.4485,0.4499,0.4522,0.4566,0.4573,0.4571,0.46,0.4602,0.4591,0.4595,0.4614,0.4613,0.4581,0.4579,0.4578,0.4563,0,0,0,0,0,0,0.4245,0.4264,0.4269,0.4352,0.4375,0.4451,0.4485,0.4501,0.4538,0.4545,0.4575,0.458,0.4602,0.4591,0.459,0.4595,0.4613,0.4581,0.458,0.4579,0.4565,0.4562,0.4559,0,0,0,0,0,0.4237,0.4253,0.4268,0.4286,0.4382,0.4451,0.4464,0.4528,0.4537,0.455,0.4556,0.4579,0.4582,0.4589,0.4589,0.4594,0.4582,0.458,0.4579,0.4566,0.4562,0.4559,0,0,0,0,0,0,0.4175,0.4265,0.4284,0.4325,0.4383,0.4468,0.4486,0.4519,0.4536,0.4531,0.4559,0.4563,0.4565,0.4566,0.4574,0.4578,0.4589,0.4587,0.4579,0.4576,0.4573,0.4666,0.4613,0,0,0,0,0,0.416,0.419,0.4277,0.4304,0.4331,0.4398,0.4429,0.447,0.4506,0.4517,0.4535,0.4544,0.4556,0.4555,0.4567,0.455,0.4632,0.4555,0.4552,0.455,0.4623,0.4726,0.4742,0.4572,0.4572,0.4572,0,0,0.4144,0.4195,0.4213,0.4291,0.4334,0.4384,0.4419,0.4466,0.4505,0.451,0.4537,0.4535,0.455,0.4552,0.4552,0.4553,0.4631,0.4547,0.4546,0.4623,0.4727,0.4744,0.476,0.4571,0.4571,0.4571,0,0,0.4133,0.4167,0.4192,0.4239,0.431,0.436,0.4371,0.4443,0.4474,0.4484,0.451,0.4516,0.4508,0.4546,0.4556,0.4539,0.4619,0.4521,0.4578,0.4674,0.4691,0.4707,0.4804,0.4829,0.4513,0.4513,0.4513,0,0.4113,0.4163,0.4208,0.4246,0.4299,0.4348,0.4398,0.443,0.4486,0.4526,0.4487,0.4541,0.4522,0.4589,0.458,0.4541,0.4618,0.4586,0.4677,0.4695,0.4712,0.4807,0.4835,0.4512,0.4512,0.4512,0.4512,0,0.4127,0.417,0.4188,0.4259,0.4308,0.4357,0.4425,0.4462,0.4479,0.4526,0.4581,0.4563,0.4623,0.4582,0.4572,0.4678,0.4701,0.4668,0.4698,0.473,0.4825,0.4855,0.451,0.4511,0.4511,0.4511,0,0,0.4103,0.4188,0.4196,0.4245,0.4329,0.4382,0.444,0.4543,0.4611,0.4617,0.4717,0.4698,0.4724,0.4743,0.4729,0.4786,0.4916,0.4783,0.4788,0.4904,0.5159,0.5067,0.5091,0.4909,0.4914,0.4918,0.5169,0,0.4117,0.4189,0.4234,0.4318,0.4378,0.445,0.4513,0.4597,0.4651,0.4744,0.4767,0.4829,0.4775,0.4798,0.4858,0.4923,0.5001,0.4855,0.5095,0.5104,0.5038,0.5124,0.4862,0.5055,0.5198,0.5203,0.5207,0,0.4137,0.4191,0.4272,0.4392,0.4424,0.4476,0.4626,0.4688,0.482,0.4861,0.4953,0.4988,0.5104,0.5016,0.5215,0.5133,0.5176,0.5199,0.5208,0.5173,0.5068,0.5051,0.5105,0.499,0.5253,0.5249,0.5246,0,0.4136,0.4233,0.4305,0.4342,0.4466,0.4528,0.4599,0.4728,0.4822,0.4963,0.5051,0.5178,0.5268,0.5356,0.5415,0.5343,0.5625,0.5517,0.5487,0.548,0.5337,0.5308,0.5338,0.5681,0.5681,0.568,0.5679,0,0.4173,0.4232,0.4307,0.4355,0.4466,0.4534,0.4676,0.476,0.4908,0.504,0.5125,0.5264,0.5365,0.5518,0.553,0.5635,0.5734,0.5569,0.5562,0.5314,0.5281,0.5237,0.5184,0.5689,0.5687,0.5686,0.5684,0,0.4199,0.4231,0.4333,0.4442,0.4477,0.4563,0.4731,0.4838,0.4958,0.5143,0.5202,0.541,0.5592,0.5681,0.5841,0.5794,0.571,0.5869,0.5574,0.5526,0.5314,0.5268,0.5181,0.5036,0.5881,0.588,0.588,0,0.4243,0.4285,0.4394,0.4455,0.4515,0.4637,0.4732,0.4858,0.4975,0.5227,0.5325,0.5557,0.569,0.5908,0.586,0.5906,0.5732,0.5694,0.5482,0.5334,0.528,0.5058,0.4925,0.5283,0.5278,0.5274,0.527,0,0.4341,0.4355,0.4435,0.4543,0.4638,0.4725,0.4854,0.4947,0.5104,0.5229,0.5411,0.5526,0.5723,0.5654,0.5716,0.5693,0.54,0.5605,0.5533,0.4916,0.46,0.4443,0.5101,0.5232,0.5236,0.5239,0.5241,0.5242,0.4417,0.4485,0.4557,0.4637,0.4724,0.4757,0.4758,0.4905,0.5011,0.5089,0.5338,0.5344,0.5404,0.5427,0.5395,0.5166,0.5159,0.498,0.4977,0.4797,0.4522,0.5108,0.5161,0.5164,0.5167,0.5169,0.5171,0,0.4478,0.4523,0.4641,0.4678,0.4676,0.4716,0.4783,0.4711,0.4727,0.4871,0.4944,0.4912,0.4846,0.484,0.4734,0.4572,0.4318,0.446,0.4093,0.4024,0.4634,0.4471,0.4274,0.4274,0.4274,0.4274,0.4274,0.4275,0.4518,0.4574,0.4593,0.4561,0.4558,0.4425,0.4376,0.4313,0.4323,0.4242,0.4171,0.4256,0.4436,0.4457,0.4278,0.4161,0.387,0.3657,0.3721,0.4163,0.4209,0.4253,0.4088,0.3813,0.3813,0.2876,0.287,0.2864]},{"header":{"parameterUnit":"m.s-1","parameterCategory":2,"la1":30.2991,"la2":30.254,"lo1":-89.0895,"lo2":-89.0444,"dy":0.0017,"dx":0.0017,"nx":28,"ny":28,"refTime":"2024-06-23T03:00:00:Z","depth":"0","parameterNumber":3,"parameterNumberName":"V-component_of_CURRENTS"},"data":[0,0,0,0,0,0,0,0,0,0,0,0,0,0,0,0,0,0,0,0,0,0,0,0,0,0,0,0,0,0,0,0,0,0,0,0,0,0,0,0,0,0,0,0,0,0,0,0,0,0,0,0,0,0,0,0,0,0,0.0136,0.0136,0,0.0097,0.0096,0.0096,0.0002,0.0,-0.0001,-0.0003,-0.0096,-0.0097,-0.0098,0,0,0,0,0,0,0,0,0,0,0,0,0,0.0125,0.0125,0.0136,0.0136,0.0136,0.0097,0.0096,0.0096,0.0002,0.0,-0.0002,-0.0004,-0.0095,-0.0097,-0.0098,0,0,0,0,0,0,0,0,0,0,0,0,0,0.0109,0.0126,0.0136,0.0087,0.0083,0.0098,0.0096,0.0095,0.0003,0.0,-0.0002,-0.0005,-0.0095,-0.0096,-0.0098,-0.0057,0,0,-0.0102,-0.0103,0,0,0,0,0,0,0,0,0.011,0.0109,0.0095,0.0091,0.0086,0.0055,0.0058,0.0043,0.0003,0.0029,-0.0003,-0.0006,-0.0046,-0.0052,-0.0058,-0.0061,-0.0065,-0.0102,-0.0103,-0.0104,-0.0104,0,0,0,0,0,0,0,0.0111,0.011,0.0117,0.0095,0.0089,0.0066,0.006,0.0055,0.0002,0.0027,0.0021,0.0023,-0.005,-0.0056,-0.0061,-0.0067,-0.0102,-0.0103,-0.0104,-0.0105,-0.0096,-0.0095,0,0,0,0,0,0,0.0126,0.0112,0.0119,0.0117,0.0096,0.0068,0.0062,0.0064,0.0003,-0.0007,0.0025,0.0019,-0.0053,-0.0059,-0.0064,-0.0032,-0.0104,-0.0105,-0.0106,-0.0097,-0.0096,-0.0095,0,0,0,0,0,0,0.0126,0.0127,0.012,0.0116,0.0113,0.0071,0.0075,0.0065,0.0062,0.0003,-0.001,0.0032,-0.0055,-0.0062,-0.0073,-0.0036,-0.0106,-0.0107,-0.0099,-0.0097,-0.0096,0.0041,0,0,0,0,0,0,0.0126,0.0128,0.0141,0.0117,0.0114,0.0146,0.0077,0.0066,0.0068,0.0059,0.0005,-0.0007,-0.0057,-0.007,-0.0074,-0.0039,-0.0108,-0.01,-0.0098,-0.0096,0.0035,0.0047,0.0057,0,0,0,0,0,0.0126,0.0162,0.0142,0.0143,0.0132,0.0148,0.0146,0.0104,0.0071,0.0088,0.0035,-0.0005,-0.0061,-0.007,-0.0075,-0.004,-0.0101,-0.0099,-0.0096,0.003,0.0044,0.0057,0,0,0,0,0,0,0.0169,0.0155,0.0132,0.0162,0.0161,0.0134,0.0152,0.0124,0.0099,0.0085,0.0018,0.0004,-0.0001,-0.0033,-0.0041,-0.0035,-0.009,-0.0088,0.0008,0.0021,0.0032,0.0083,-0.0109,0,0,0,0,0,0.0187,0.0206,0.0188,0.0216,0.022,0.019,0.0193,0.0166,0.0141,0.0127,0.0084,0.0039,0.001,0.0004,-0.0033,-0.0007,-0.0033,0.0007,0.0019,0.0028,0.0065,0.0047,0.0061,-0.0087,-0.0087,-0.0087,0,0,0.0213,0.0209,0.022,0.0227,0.0221,0.0247,0.0185,0.0204,0.0224,0.0125,0.0136,0.0076,0.002,0.0025,0.0023,0.0005,0.0055,0.0032,0.0041,0.0072,0.0051,0.0066,0.0079,-0.0085,-0.0086,-0.0086,0,0,0.0285,0.0274,0.0313,0.0318,0.0321,0.0305,0.0318,0.0297,0.0285,0.0289,0.0213,0.0184,0.0146,0.0116,0.0095,0.0156,0.0103,0.0136,0.0253,0.0235,0.0248,0.0259,0.0242,0.0251,0.0156,0.0156,0.0156,0,0.0314,0.036,0.0331,0.037,0.0393,0.0339,0.0394,0.0382,0.0356,0.037,0.0306,0.0254,0.0193,0.022,0.0223,0.0185,0.0165,0.0209,0.0253,0.0263,0.0272,0.0252,0.0259,0.0163,0.0162,0.0161,0.0161,0,0.0409,0.0446,0.0478,0.0503,0.0523,0.0566,0.0548,0.0563,0.053,0.0507,0.0511,0.0423,0.0402,0.0367,0.0312,0.0356,0.0317,0.0259,0.0227,0.0296,0.0269,0.0275,0.0173,0.017,0.0168,0.0166,0,0,0.0471,0.0533,0.0541,0.0588,0.0601,0.0635,0.0682,0.072,0.0766,0.0705,0.0766,0.0681,0.0628,0.0602,0.0528,0.0509,0.053,0.0428,0.0423,0.0427,0.0502,0.0443,0.0442,0.0481,0.0483,0.0484,0.0457,0,0.0556,0.0667,0.0669,0.0778,0.0839,0.0824,0.0881,0.09,0.0888,0.0924,0.0848,0.085,0.0721,0.0716,0.0679,0.0575,0.0553,0.0544,0.0422,0.0419,0.0371,0.0449,0.0418,0.0389,0.0462,0.0463,0.0464,0,0.0644,0.0713,0.0838,0.0941,0.0968,0.1017,0.1113,0.1153,0.1178,0.1171,0.1157,0.1086,0.1068,0.093,0.0816,0.0819,0.0684,0.0583,0.0578,0.0488,0.0371,0.0331,0.0396,0.017,0.0471,0.0471,0.047,0,0.0721,0.0832,0.0945,0.0975,0.1072,0.1138,0.1187,0.1232,0.1292,0.1332,0.1374,0.1315,0.1305,0.1148,0.092,0.0884,0.0775,0.0691,0.0512,0.0506,0.0441,0.0426,0.0291,0.061,0.061,0.061,0.061,0,0.082,0.0907,0.0992,0.1058,0.1197,0.123,0.1368,0.1406,0.148,0.1582,0.1506,0.1578,0.1358,0.1254,0.1022,0.08,0.085,0.0568,0.0509,0.0484,0.0474,0.024,0.0121,0.0609,0.0609,0.0609,0.0609,0,0.089,0.0943,0.1074,0.1195,0.1239,0.1335,0.1474,0.157,0.1629,0.1768,0.1796,0.1793,0.1678,0.1413,0.1171,0.0947,0.0581,0.0607,0.0593,0.0534,0.0169,0.006,-0.0123,-0.0222,0.0452,0.0451,0.045,0,0.094,0.1019,0.1162,0.1236,0.1297,0.1433,0.1537,0.1632,0.1737,0.1907,0.1991,0.1952,0.1969,0.1598,0.1161,0.0773,0.0529,0.0489,0.0406,0.0181,0.0015,-0.0079,-0.0156,0.0369,0.0367,0.0366,0.0365,0,0.1036,0.1076,0.1173,0.1323,0.1442,0.1588,0.1742,0.1852,0.1993,0.2145,0.2338,0.2389,0.2051,0.1678,0.112,0.0835,0.0332,0.0448,0.0221,-0.0035,-0.015,-0.0284,0.0349,0.0352,0.0353,0.0354,0.0355,0.0355,0.1085,0.1158,0.1273,0.1411,0.1549,0.173,0.1875,0.2058,0.228,0.2538,0.2572,0.2676,0.2137,0.14,0.0978,0.0195,0.0217,-0.0033,-0.0137,-0.0203,-0.0327,0.0285,0.0208,0.0209,0.0209,0.0209,0.021,0,0.1142,0.1228,0.1359,0.1533,0.169,0.1762,0.2005,0.2175,0.2465,0.269,0.2878,0.2644,0.1967,0.125,0.021,-0.0301,-0.0475,-0.0567,-0.071,-0.0752,-0.0201,-0.0235,-0.042,-0.042,-0.042,-0.042,-0.042,-0.0419,0.1182,0.1295,0.136,0.161,0.1751,0.1985,0.2136,0.2408,0.26,0.2887,0.2934,0.294,0.2394,0.0635,-0.0574,-0.084,-0.115,-0.1254,-0.1385,-0.1031,-0.0989,-0.095,-0.101,-0.1355,-0.1356,-0.1898,-0.1903,-0.1907]}],[{"header":{"parameterUnit":"m.s-1","parameterCategory":2,"la1":30.2991,"la2":30.254,"lo1":-89.0895,"lo2":-89.0444,"dy":0.0017,"dx":0.0017,"nx":28,"ny":28,"refTime":"2024-06-23T03:00:00:Z","depth":"2","parameterNumber":2,"parameterNumberName":"U-component_of_CURRENTS"},"data":[0,0,0,0,0,0,0,0,0,0,0,0,0,0,0,0,0,0,0,0,0,0,0,0,0,0,0,0,0,0,0,0,0,0,0,0,0,0,0,0,0,0,0,0,0,0,0,0,0,0,0,0,0,0,0,0,0,0,0.3504,0.3505,0,0.363,0.3632,0.3633,0.3696,0.3695,0.3695,0.3695,0.3735,0.3736,0.3737,0,0,0,0,0,0,0,0,0,0,0,0,0,0.3382,0.3384,0.3504,0.3505,0.3507,0.363,0.3632,0.3634,0.3696,0.3695,0.3695,0.3695,0.3734,0.3736,0.3737,0,0,0,0,0,0,0,0,0,0,0,0,0,0.3466,0.3384,0.3504,0.3551,0.3556,0.3629,0.3632,0.3634,0.3696,0.3695,0.3695,0.3695,0.3734,0.3735,0.3737,0.3757,0,0,0.3743,0.3744,0,0,0,0,0,0,0,0,0.3461,0.3471,0.3542,0.3547,0.3553,0.3644,0.3603,0.367,0.3696,0.3645,0.3695,0.3694,0.3695,0.37,0.373,0.3758,0.376,0.3743,0.3745,0.3745,0.3746,0,0,0,0,0,0,0,0.3455,0.3466,0.3557,0.3544,0.355,0.3587,0.3598,0.3617,0.3671,0.365,0.3654,0.3664,0.3698,0.3728,0.3731,0.3761,0.3743,0.3745,0.3746,0.3747,0.3782,0.3782,0,0,0,0,0,0,0.3432,0.3461,0.3553,0.356,0.3502,0.3589,0.3602,0.3618,0.3673,0.3681,0.3664,0.3666,0.3725,0.3728,0.3732,0.3759,0.3745,0.3747,0.3748,0.3782,0.3782,0.3782,0,0,0,0,0,0,0.3429,0.3439,0.3548,0.3511,0.3527,0.3591,0.3609,0.362,0.3666,0.3684,0.3691,0.3698,0.3724,0.3729,0.3739,0.376,0.3748,0.375,0.3783,0.3782,0.3782,0.3811,0,0,0,0,0,0,0.3425,0.3437,0.3455,0.3509,0.3528,0.3598,0.3609,0.3623,0.367,0.3675,0.3715,0.3718,0.3725,0.3735,0.374,0.3763,0.3751,0.3783,0.3782,0.3782,0.381,0.3811,0.3813,0,0,0,0,0,0.342,0.3435,0.3455,0.3467,0.3545,0.3599,0.3613,0.3658,0.3672,0.3698,0.3705,0.3718,0.3736,0.3737,0.3743,0.3766,0.3783,0.3782,0.3782,0.3809,0.3811,0.3813,0,0,0,0,0,0,0.3386,0.3444,0.3467,0.3498,0.3549,0.3608,0.3632,0.3669,0.3703,0.3706,0.3718,0.3721,0.3751,0.374,0.3741,0.377,0.3762,0.3762,0.378,0.3782,0.3783,0.3831,0.3753,0,0,0,0,0,0.3387,0.3415,0.3475,0.35,0.3522,0.3583,0.3615,0.3655,0.3686,0.3704,0.3723,0.3734,0.3753,0.3751,0.3775,0.378,0.3829,0.3795,0.3796,0.3798,0.3837,0.392,0.3934,0.378,0.378,0.378,0,0,0.338,0.3413,0.3431,0.3495,0.3533,0.3569,0.3602,0.3657,0.3691,0.3699,0.3735,0.3757,0.3761,0.378,0.3789,0.377,0.3862,0.3797,0.3799,0.3839,0.3921,0.3937,0.3951,0.378,0.378,0.378,0,0,0.3376,0.3409,0.3436,0.3469,0.3535,0.3574,0.3591,0.3661,0.3698,0.3725,0.3753,0.3782,0.3783,0.3812,0.3816,0.3834,0.3885,0.3831,0.386,0.3938,0.3953,0.3967,0.4035,0.4055,0.3809,0.3809,0.3809,0,0.3373,0.3409,0.3452,0.3477,0.3511,0.357,0.3612,0.3649,0.3716,0.3761,0.3728,0.3807,0.3801,0.3865,0.3861,0.3844,0.3898,0.3855,0.3945,0.396,0.3973,0.4041,0.4062,0.381,0.381,0.381,0.381,0,0.3382,0.3417,0.3426,0.3479,0.3523,0.3564,0.3622,0.3678,0.3711,0.3756,0.3837,0.384,0.3898,0.3882,0.3868,0.397,0.3981,0.3959,0.3952,0.3992,0.4058,0.408,0.3812,0.3812,0.3811,0.3811,0,0,0.3372,0.3429,0.3437,0.347,0.3536,0.3578,0.3636,0.3732,0.3792,0.383,0.3916,0.3934,0.3982,0.3994,0.4006,0.4043,0.4158,0.4039,0.4042,0.4127,0.4347,0.4221,0.4233,0.4163,0.4167,0.417,0.435,0,0.3379,0.3432,0.3463,0.3518,0.3556,0.3625,0.3665,0.3756,0.3823,0.3908,0.396,0.4032,0.4009,0.4051,0.4096,0.4179,0.4221,0.4112,0.428,0.4285,0.4186,0.4256,0.3938,0.4061,0.4372,0.4375,0.4378,0,0.3387,0.3427,0.3487,0.3562,0.3585,0.3627,0.3757,0.3808,0.3935,0.3987,0.4096,0.4148,0.4273,0.4202,0.4386,0.4328,0.435,0.437,0.4377,0.4277,0.4202,0.4072,0.409,0.4415,0.4412,0.441,0.4407,0,0.338,0.3448,0.3505,0.3523,0.3605,0.367,0.3734,0.3854,0.3926,0.4084,0.417,0.43,0.4401,0.4474,0.4531,0.449,0.4692,0.4634,0.4538,0.453,0.4302,0.4265,0.4735,0.4734,0.4734,0.4733,0.4733,0,0.3376,0.3419,0.351,0.3534,0.362,0.3678,0.3791,0.3878,0.4005,0.4101,0.4237,0.4345,0.4477,0.4596,0.4609,0.4667,0.4773,0.4588,0.4581,0.4296,0.4258,0.4593,0.4574,0.474,0.4739,0.4737,0.4736,0,0.3349,0.3404,0.3462,0.3563,0.3619,0.3678,0.383,0.3868,0.404,0.4189,0.4255,0.445,0.4609,0.4697,0.4819,0.4774,0.4817,0.4781,0.4432,0.438,0.4586,0.4566,0.4742,0.474,0.4737,0.4736,0.4734,0,0.334,0.3363,0.3481,0.3514,0.3568,0.368,0.372,0.3875,0.3932,0.4232,0.4275,0.4508,0.4601,0.4763,0.4731,0.4759,0.4792,0.4437,0.4275,0.4618,0.4595,0.4578,0.4562,0.399,0.3983,0.3976,0.3971,0,0.3304,0.3339,0.3385,0.3427,0.3483,0.3572,0.3677,0.3754,0.3926,0.405,0.4234,0.4355,0.455,0.4433,0.4462,0.4417,0.4414,0.431,0.4804,0.4015,0.3917,0.389,0.3898,0.3917,0.3922,0.3926,0.3929,0.3931,0.3272,0.3257,0.3272,0.3322,0.3393,0.3452,0.3472,0.3566,0.3652,0.3804,0.4013,0.4076,0.4165,0.4054,0.3938,0.3867,0.4153,0.3956,0.3973,0.3996,0.3854,0.3755,0.37,0.3704,0.3707,0.371,0.3713,0,0.3142,0.3152,0.3158,0.3181,0.3185,0.3302,0.3395,0.3331,0.3373,0.3531,0.3632,0.3396,0.3359,0.3444,0.3277,0.3277,0.3219,0.3119,0.3018,0.3079,0.3132,0.294,0.2546,0.2541,0.2537,0.2533,0,0,0.3082,0.3008,0.2991,0.297,0.3029,0.2987,0.3041,0.2975,0.3019,0.2954,0.2973,0.3227,0.3389,0.2919,0.2866,0.2679,0.2842,0.2575,0.3532,0.3478,0.3524,0.3659,0.3439,0,0,0,0,0]},{"header":{"parameterUnit":"m.s-1","parameterCategory":2,"la1":30.2991,"la2":30.254,"lo1":-89.0895,"lo2":-89.0444,"dy":0.0017,"dx":0.0017,"nx":28,"ny":28,"refTime":"2024-06-23T03:00:00:Z","depth":"2","parameterNumber":3,"parameterNumberName":"V-component_of_CURRENTS"},"data":[0,0,0,0,0,0,0,0,0,0,0,0,0,0,0,0,0,0,0,0,0,0,0,0,0,0,0,0,0,0,0,0,0,0,0,0,0,0,0,0,0,0,0,0,0,0,0,0,0,0,0,0,0,0,0,0,0,0,0.013,0.013,0,0.0087,0.0086,0.0085,0.0031,0.003,0.0029,0.0029,-0.0071,-0.0072,-0.0074,0,0,0,0,0,0,0,0,0,0,0,0,0,0.013,0.013,0.013,0.013,0.0129,0.0087,0.0086,0.0085,0.0031,0.003,0.0029,0.0028,-0.007,-0.0072,-0.0075,0,0,0,0,0,0,0,0,0,0,0,0,0,0.0111,0.013,0.013,0.0099,0.0096,0.0087,0.0086,0.0085,0.0031,0.003,0.0029,0.0028,-0.0069,-0.0072,-0.0075,-0.0073,0,0,-0.0084,-0.0085,0,0,0,0,0,0,0,0,0.0112,0.0111,0.0104,0.0101,0.0097,0.0065,0.005,0.003,0.0031,0.0053,0.0029,0.0028,-0.0028,-0.0035,-0.0043,-0.0078,-0.0082,-0.0084,-0.0086,-0.0088,-0.0088,0,0,0,0,0,0,0,0.0113,0.0112,0.0111,0.0103,0.01,0.0075,0.0071,0.0046,0.0016,0.0051,0.0048,0.0047,-0.0031,-0.004,-0.0046,-0.0083,-0.0084,-0.0087,-0.0089,-0.009,-0.013,-0.0129,0,0,0,0,0,0,0.0126,0.0114,0.0112,0.011,0.0105,0.0076,0.0071,0.0075,0.0018,0.0009,0.0048,0.0044,-0.0034,-0.0042,-0.0049,-0.0042,-0.0088,-0.009,-0.0092,-0.0131,-0.013,-0.0129,0,0,0,0,0,0,0.0126,0.0127,0.0114,0.0112,0.0109,0.0077,0.0081,0.0074,0.0071,0.0016,0.0005,0.0051,-0.0035,-0.0045,-0.0065,-0.0047,-0.0092,-0.0094,-0.0132,-0.013,-0.0129,-0.0033,0,0,0,0,0,0,0.0127,0.0127,0.0134,0.0113,0.0109,0.0123,0.0082,0.0074,0.0072,0.0067,0.0016,0.0005,-0.0037,-0.006,-0.0068,-0.0052,-0.0097,-0.0133,-0.0131,-0.013,-0.0037,-0.0029,-0.0021,0,0,0,0,0,0.0127,0.0147,0.0134,0.0134,0.012,0.0124,0.012,0.0092,0.0074,0.0082,0.0043,0.0007,-0.0057,-0.0062,-0.0071,-0.0055,-0.0133,-0.0132,-0.013,-0.0041,-0.003,-0.0022,0,0,0,0,0,0,0.0146,0.0143,0.0129,0.0144,0.0139,0.0116,0.0124,0.0104,0.0081,0.0074,0.0018,0.0006,-0.0011,-0.0042,-0.0045,-0.0064,-0.0102,-0.0102,-0.003,-0.0021,-0.0014,0.001,-0.0099,0,0,0,0,0,0.0156,0.0172,0.0159,0.0173,0.0176,0.0152,0.015,0.0133,0.0111,0.01,0.0061,0.0021,-0.001,-0.0022,-0.0059,-0.0059,-0.0099,-0.0057,-0.0049,-0.0042,-0.0029,-0.0073,-0.0067,-0.0124,-0.0124,-0.0124,0,0,0.0168,0.0168,0.0176,0.0179,0.0173,0.0186,0.0148,0.0156,0.0165,0.0093,0.009,0.0044,-0.0007,-0.0017,-0.0025,-0.0039,-0.0047,-0.004,-0.0033,-0.0025,-0.007,-0.0065,-0.006,-0.0122,-0.0123,-0.0123,0,0,0.0206,0.0202,0.0229,0.0232,0.0233,0.022,0.0228,0.0211,0.0202,0.0194,0.0141,0.0112,0.0068,0.0038,0.0016,0.0049,-0.0011,0.0035,0.0103,0.0062,0.0066,0.0069,0.0027,0.0026,0.0048,0.0048,0.0049,0,0.0217,0.025,0.0237,0.0263,0.0276,0.0242,0.0274,0.0262,0.0237,0.0239,0.0204,0.0141,0.0094,0.0088,0.0095,0.0067,0.0033,0.0074,0.0073,0.0075,0.0077,0.0032,0.003,0.0053,0.0053,0.0052,0.0052,0,0.0274,0.0299,0.0319,0.034,0.035,0.0375,0.0362,0.0369,0.0347,0.0323,0.0308,0.0241,0.0209,0.0186,0.0149,0.0148,0.0115,0.0081,0.0052,0.0089,0.0039,0.0035,0.006,0.0058,0.0057,0.0056,0,0,0.0303,0.0351,0.0357,0.0391,0.0397,0.0419,0.0441,0.0456,0.0481,0.043,0.0452,0.0382,0.0342,0.0316,0.0264,0.0228,0.0203,0.0172,0.0167,0.0137,0.0111,0.0066,0.0056,0.0169,0.0169,0.0169,0.0072,0,0.0352,0.0429,0.0431,0.05,0.0544,0.0532,0.056,0.0564,0.055,0.0558,0.0489,0.0479,0.0394,0.039,0.0337,0.0249,0.0196,0.0232,0.0075,0.007,0.0031,0.0051,0.0096,0.0012,0.0067,0.0067,0.0066,0,0.0405,0.0457,0.054,0.0607,0.0624,0.0656,0.0713,0.0732,0.0725,0.0715,0.0683,0.0622,0.0579,0.0492,0.0351,0.038,0.0253,0.0164,0.0158,0.0081,0.0017,-0.0017,0.0001,0.0058,0.0059,0.0059,0.006,0,0.0456,0.0531,0.0608,0.063,0.0692,0.0737,0.0771,0.0785,0.0828,0.0826,0.0855,0.0759,0.0746,0.0582,0.0394,0.0379,0.0219,0.0173,0.0002,-0.0004,-0.0013,-0.0019,0.0045,0.0045,0.0045,0.0046,0.0046,0,0.0513,0.0574,0.0647,0.0695,0.0799,0.0811,0.0911,0.093,0.0967,0.1043,0.0949,0.0985,0.0767,0.0647,0.0443,0.0222,0.0252,0.0019,-0.0028,0.002,0.0019,0.002,0.0018,0.0042,0.0043,0.0043,0.0044,0,0.0556,0.0598,0.0697,0.079,0.0831,0.0908,0.1024,0.109,0.1118,0.1222,0.1237,0.1165,0.1026,0.0772,0.0515,0.031,0.0084,-0.0021,0.005,0.0013,-0.0125,-0.0121,-0.0199,-0.0201,-0.0203,-0.0205,-0.0206,0,0.0588,0.0647,0.0776,0.0849,0.0901,0.1018,0.1106,0.1168,0.1249,0.1345,0.1404,0.1308,0.1255,0.0852,0.0482,0.0113,0.0055,-0.0108,-0.0141,-0.011,-0.0149,-0.0141,-0.0134,-0.0117,-0.0118,-0.0118,-0.0119,0,0.0656,0.0697,0.0778,0.0929,0.1043,0.1183,0.1317,0.1411,0.1506,0.1593,0.1694,0.1663,0.1304,0.0952,0.0429,0.0177,-0.0041,-0.0131,-0.0107,-0.0064,-0.0043,-0.0077,-0.0071,-0.0123,-0.0122,-0.0122,-0.0122,-0.0122,0.0703,0.0768,0.0876,0.1017,0.1155,0.1345,0.1483,0.1619,0.1782,0.1924,0.188,0.1838,0.1441,0.0782,0.0353,-0.0091,-0.0074,-0.0235,-0.023,-0.0225,-0.02,-0.0183,-0.0285,-0.0285,-0.0286,-0.0286,-0.0286,0,0.076,0.084,0.0965,0.1146,0.1307,0.1386,0.1618,0.1743,0.1956,0.2042,0.2096,0.1711,0.1305,0.0847,0.02,-0.02,-0.022,-0.0334,-0.0256,-0.0249,-0.0243,-0.0217,-0.0308,-0.031,-0.0311,-0.0312,0,0,0.0799,0.0917,0.098,0.1248,0.1391,0.1627,0.1783,0.1957,0.2057,0.2132,0.2097,0.1984,0.1445,0.0967,0.0436,0.0073,-0.0003,-0.0011,0.0051,0.0213,0.0224,-0.0142,-0.0088,0,0,0,0,0]}],[{"header":{"parameterUnit":"m.s-1","parameterCategory":2,"la1":30.2991,"la2":30.254,"lo1":-89.0895,"lo2":-89.0444,"dy":0.0017,"dx":0.0017,"nx":28,"ny":28,"refTime":"2024-06-23T03:00:00:Z","depth":"4","parameterNumber":2,"parameterNumberName":"U-component_of_CURRENTS"},"data":[0,0,0,0,0,0,0,0,0,0,0,0,0,0,0,0,0,0,0,0,0,0,0,0,0,0,0,0,0,0,0,0,0,0,0,0,0,0,0,0,0,0,0,0,0,0,0,0,0,0,0,0,0,0,0,0,0,0,0.1838,0.1839,0,0.1912,0.1912,0.1913,0.1933,0.1933,0.1934,0.1934,0.2129,0.2134,0.2139,0,0,0,0,0,0,0,0,0,0,0,0,0,0.1734,0.1735,0.1838,0.1839,0.1841,0.1912,0.1912,0.1913,0.1933,0.1934,0.1934,0.1934,0.2128,0.2134,0.214,0,0,0,0,0,0,0,0,0,0,0,0,0,0.1785,0.1736,0.1838,0.1864,0.1867,0.1912,0.1912,0.1913,0.1933,0.1934,0.1934,0.1934,0.2126,0.2133,0.2141,0.2185,0,0,0.2164,0.2167,0,0,0,0,0,0,0,0,0.1782,0.1788,0.1859,0.1862,0.1866,0.1919,0.1948,0.2012,0.1933,0.1902,0.1934,0.1934,0.2074,0.2086,0.2089,0.2194,0.2202,0.2165,0.2169,0.2173,0.2175,0,0,0,0,0,0,0,0.1779,0.1786,0.1861,0.186,0.1865,0.1879,0.1886,0.1959,0.1984,0.1905,0.1908,0.1925,0.2076,0.2082,0.2095,0.2205,0.2164,0.2171,0.2176,0.2179,0.2459,0.2462,0,0,0,0,0,0,0.178,0.1782,0.1859,0.1864,0.183,0.1881,0.1888,0.1897,0.1981,0.1994,0.1925,0.1926,0.2068,0.2086,0.2102,0.2258,0.2173,0.218,0.2184,0.2456,0.246,0.2463,0,0,0,0,0,0,0.1777,0.1786,0.1856,0.183,0.1841,0.1883,0.1893,0.1899,0.195,0.1996,0.201,0.1976,0.2069,0.2091,0.2209,0.2262,0.2183,0.219,0.2453,0.2457,0.2461,0.2508,0,0,0,0,0,0,0.1774,0.1784,0.1808,0.183,0.1842,0.1917,0.1893,0.19,0.196,0.1963,0.2044,0.2059,0.2071,0.2198,0.2217,0.2271,0.2196,0.2449,0.2455,0.246,0.2503,0.2513,0.2522,0,0,0,0,0,0.177,0.1796,0.1808,0.182,0.1868,0.192,0.1929,0.1955,0.1963,0.1999,0.2055,0.2059,0.2244,0.2207,0.2229,0.2286,0.2447,0.2453,0.246,0.2499,0.2511,0.2522,0,0,0,0,0,0,0.1762,0.1802,0.1816,0.1853,0.1903,0.1927,0.1965,0.1987,0.2055,0.2074,0.2106,0.2126,0.2245,0.2269,0.2226,0.2383,0.2343,0.2354,0.2366,0.2378,0.2388,0.2398,0.2202,0,0,0,0,0,0.1773,0.1809,0.1848,0.1887,0.1913,0.195,0.1982,0.2009,0.2063,0.2092,0.2153,0.2219,0.2281,0.2333,0.2394,0.2494,0.2505,0.2543,0.2553,0.2561,0.2585,0.2641,0.2658,0.2484,0.2484,0.2484,0,0,0.1779,0.1812,0.1831,0.1891,0.1925,0.1968,0.197,0.2039,0.2087,0.2109,0.2216,0.2269,0.2318,0.2414,0.247,0.2447,0.2615,0.2569,0.2575,0.2596,0.265,0.2666,0.2681,0.2488,0.2487,0.2487,0,0,0.1805,0.1843,0.1878,0.1926,0.2001,0.2021,0.2055,0.212,0.2165,0.2267,0.229,0.2383,0.2486,0.2527,0.2556,0.2667,0.2665,0.269,0.2752,0.2805,0.282,0.2832,0.285,0.2864,0.2693,0.2693,0.2693,0,0.1817,0.1861,0.1902,0.1952,0.1996,0.2049,0.2099,0.2149,0.2253,0.2309,0.2315,0.2482,0.2532,0.2634,0.2671,0.269,0.2709,0.2695,0.2816,0.2829,0.2841,0.2856,0.2871,0.2696,0.2696,0.2695,0.2695,0,0.1858,0.1911,0.1942,0.2012,0.2065,0.2128,0.2193,0.2275,0.2336,0.2386,0.2529,0.2596,0.2692,0.2721,0.2734,0.2854,0.2834,0.2817,0.2777,0.2861,0.2872,0.2887,0.27,0.2699,0.2698,0.2697,0,0,0.1842,0.1946,0.1965,0.2002,0.2109,0.2146,0.225,0.2347,0.2418,0.253,0.2625,0.2747,0.2799,0.2838,0.2875,0.2934,0.3031,0.2926,0.2927,0.2928,0.3136,0.2954,0.2952,0.3035,0.3038,0.3041,0.3101,0,0.1868,0.1951,0.2008,0.2092,0.2132,0.2223,0.2304,0.2409,0.2499,0.2609,0.2706,0.2814,0.2834,0.2897,0.2963,0.303,0.3076,0.3015,0.307,0.3071,0.2887,0.2965,0.3052,0.3112,0.3115,0.3117,0.3119,0,0.1886,0.1941,0.2026,0.2125,0.2154,0.222,0.2359,0.2447,0.2606,0.2685,0.2814,0.2883,0.3028,0.3008,0.316,0.3124,0.3147,0.3172,0.3174,0.3003,0.2917,0.3019,0.3145,0.3143,0.3141,0.3139,0.3138,0,0.1832,0.1949,0.2013,0.2054,0.2177,0.2251,0.2332,0.2486,0.2579,0.2755,0.2837,0.2985,0.3092,0.3157,0.3239,0.3214,0.3366,0.3319,0.3167,0.3153,0.3274,0.326,0.3403,0.3403,0.3403,0.3403,0.3403,0,0.1814,0.1868,0.2001,0.2034,0.2121,0.2233,0.2351,0.2458,0.2632,0.2731,0.2885,0.2976,0.3144,0.3243,0.3271,0.3272,0.3393,0.3197,0.3168,0.329,0.3277,0.3282,0.3268,0.3405,0.3405,0.3404,0.3404,0,0.1734,0.1828,0.1899,0.2042,0.2096,0.2163,0.2348,0.2421,0.2614,0.2751,0.2818,0.3027,0.3158,0.327,0.339,0.3306,0.3319,0.3279,0.3409,0.3382,0.3054,0.3042,0.3101,0.3095,0.3091,0.3087,0.3083,0,0.1681,0.1723,0.1879,0.1918,0.199,0.2115,0.219,0.2394,0.2471,0.2746,0.2784,0.3001,0.3109,0.3133,0.3261,0.3289,0.3255,0.3216,0.3132,0.3064,0.303,0.3025,0.3019,0.3076,0.3074,0.3073,0.3072,0,0.1568,0.1658,0.1708,0.18,0.1881,0.1969,0.2099,0.2146,0.2375,0.2579,0.2696,0.2784,0.2927,0.3022,0.3081,0.3088,0.3216,0.3164,0.3173,0.3095,0.3034,0.3004,0.3004,0.3055,0.3058,0.3059,0.306,0,0.1475,0.1478,0.156,0.1637,0.1728,0.1774,0.1877,0.1979,0.21,0.241,0.2446,0.2679,0.2895,0.2919,0.2965,0.2976,0.2925,0.2802,0.2829,0.2848,0.2742,0.2626,0.2513,0,0,0,0,0,0.1352,0.1345,0.1382,0.1442,0.1539,0.1619,0.1776,0.1891,0.2126,0.2145,0.2298,0.2418,0.2539,0.2663,0.2626,0.2837,0.2915,0.2777,0.2781,0.2963,0.2982,0.2882,0,0,0,0,0,0,0.1261,0.128,0.1305,0.1272,0.1308,0.1394,0.1504,0.1677,0.1707,0.1968,0.2055,0.2265,0.2422,0.2549,0.2583,0.2617,0.2565,0.2936,0.2929,0.2952,0.297,0.2985,0.2889,0,0,0,0,0]},{"header":{"parameterUnit":"m.s-1","parameterCategory":2,"la1":30.2991,"la2":30.254,"lo1":-89.0895,"lo2":-89.0444,"dy":0.0017,"dx":0.0017,"nx":28,"ny":28,"refTime":"2024-06-23T03:00:00:Z","depth":"4","parameterNumber":3,"parameterNumberName":"V-component_of_CURRENTS"},"data":[0,0,0,0,0,0,0,0,0,0,0,0,0,0,0,0,0,0,0,0,0,0,0,0,0,0,0,0,0,0,0,0,0,0,0,0,0,0,0,0,0,0,0,0,0,0,0,0,0,0,0,0,0,0,0,0,0,0,0.0198,0.0198,0,0.0173,0.0173,0.0172,0.0165,0.0166,0.0166,0.0166,0.0087,0.0085,0.0083,0,0,0,0,0,0,0,0,0,0,0,0,0,0.0198,0.0198,0.0198,0.0198,0.0198,0.0173,0.0173,0.0172,0.0165,0.0166,0.0166,0.0166,0.0088,0.0085,0.0083,0,0,0,0,0,0,0,0,0,0,0,0,0,0.0187,0.0198,0.0198,0.0192,0.0192,0.0173,0.0173,0.0172,0.0165,0.0166,0.0166,0.0166,0.0089,0.0086,0.0082,0.0053,0,0,0.0071,0.007,0,0,0,0,0,0,0,0,0.0187,0.0186,0.0193,0.0193,0.0192,0.0174,0.0144,0.013,0.0165,0.0174,0.0166,0.0167,0.0112,0.0107,0.01,0.0049,0.0046,0.0071,0.0069,0.0067,0.0066,0,0,0,0,0,0,0,0.0188,0.0187,0.0187,0.0193,0.0192,0.0176,0.0176,0.0141,0.0139,0.0173,0.0173,0.0172,0.0111,0.0103,0.0098,0.0044,0.0071,0.0068,0.0066,0.0065,-0.0015,-0.0015,0,0,0,0,0,0,0.0196,0.0188,0.0188,0.0186,0.0192,0.0176,0.0175,0.0178,0.0141,0.0136,0.0172,0.0172,0.0109,0.0102,0.0095,0.0083,0.0068,0.0064,0.0062,-0.0015,-0.0015,-0.0015,0,0,0,0,0,0,0.0196,0.0196,0.0189,0.0187,0.0186,0.0177,0.0179,0.0178,0.0178,0.014,0.0135,0.0175,0.0109,0.01,0.0073,0.0078,0.0063,0.0059,-0.0015,-0.0015,-0.0015,0.0041,0,0,0,0,0,0,0.0196,0.0196,0.02,0.0188,0.0186,0.0187,0.0179,0.0177,0.0177,0.0177,0.0141,0.0134,0.0109,0.0079,0.007,0.0073,0.0057,-0.0015,-0.0015,-0.0015,0.0039,0.0043,0.0046,0,0,0,0,0,0.0196,0.0203,0.0201,0.02,0.0192,0.0188,0.0185,0.0178,0.0177,0.0179,0.0156,0.0135,0.0073,0.0076,0.0066,0.0068,-0.0015,-0.0015,-0.0015,0.0038,0.0042,0.0046,0,0,0,0,0,0,0.0198,0.0202,0.02,0.0206,0.0201,0.0187,0.019,0.0183,0.0167,0.0166,0.0132,0.0123,0.0101,0.0075,0.0079,0.0045,0.0026,0.0024,0.007,0.0074,0.0077,0.0088,0.0054,0,0,0,0,0,0.0202,0.0213,0.0207,0.0211,0.0213,0.0202,0.0199,0.0195,0.0179,0.0174,0.0149,0.0119,0.0091,0.0076,0.0046,0.0025,-0.0015,0.0019,0.0023,0.0026,0.0027,-0.0028,-0.0029,-0.0015,-0.0015,-0.0015,0,0,0.0203,0.0206,0.0212,0.0213,0.021,0.0214,0.0201,0.0203,0.0205,0.0165,0.0159,0.0128,0.0087,0.0068,0.0056,0.0048,0.0001,0.0026,0.0029,0.0029,-0.0028,-0.0029,-0.0031,-0.0015,-0.0015,-0.0015,0,0,0.0211,0.0216,0.0229,0.0232,0.0233,0.0226,0.023,0.0221,0.0219,0.0204,0.0178,0.0153,0.0111,0.0086,0.0066,0.0067,0.002,0.006,0.0086,0.0033,0.0032,0.003,-0.0022,-0.0029,0.0063,0.0063,0.0063,0,0.0211,0.023,0.0229,0.0242,0.025,0.0235,0.0248,0.024,0.0223,0.0219,0.021,0.015,0.0119,0.009,0.0097,0.0076,0.0038,0.0077,0.0038,0.0036,0.0033,-0.002,-0.0028,0.0066,0.0065,0.0065,0.0065,0,0.0231,0.0247,0.0256,0.0271,0.0274,0.0286,0.0279,0.0281,0.0273,0.0257,0.0232,0.0187,0.0153,0.014,0.0119,0.0088,0.0065,0.0049,0.0031,0.0035,-0.0021,-0.0031,0.007,0.0069,0.0068,0.0067,0,0,0.0229,0.0265,0.0269,0.0292,0.0297,0.0306,0.0312,0.0311,0.0322,0.0287,0.0286,0.0233,0.0208,0.0184,0.0151,0.0109,0.0058,0.0078,0.0074,0.0032,-0.0061,-0.0052,-0.0062,0.0035,0.0034,0.0033,-0.0092,0,0.0247,0.0289,0.0294,0.0331,0.0357,0.0354,0.0369,0.0364,0.0349,0.0342,0.0286,0.027,0.0224,0.022,0.0164,0.0092,0.0035,0.0094,-0.0064,-0.0069,-0.0056,-0.0072,0.0029,-0.0099,-0.0102,-0.0103,-0.0105,0,0.0265,0.0298,0.0342,0.039,0.0401,0.0417,0.0445,0.0456,0.0434,0.0424,0.0379,0.0334,0.0273,0.0237,0.009,0.013,0.0037,-0.0029,-0.0036,-0.0053,-0.0077,-0.0107,-0.0123,-0.0122,-0.012,-0.0119,-0.0118,0,0.0286,0.033,0.0374,0.039,0.0435,0.0459,0.0483,0.0482,0.0514,0.0478,0.0488,0.0384,0.0363,0.0221,0.0084,0.0085,-0.0083,-0.0103,-0.0193,-0.0194,-0.0189,-0.0186,-0.0224,-0.0224,-0.0223,-0.0223,-0.0223,0,0.0311,0.0348,0.0395,0.0428,0.0499,0.0505,0.0571,0.0578,0.0594,0.0635,0.0539,0.0539,0.036,0.0247,0.0094,-0.0074,-0.0085,-0.0194,-0.0226,-0.0163,-0.0155,-0.0197,-0.0192,-0.0228,-0.0227,-0.0226,-0.0225,0,0.0334,0.0359,0.0427,0.049,0.0518,0.0575,0.0665,0.0714,0.0709,0.0759,0.0757,0.0661,0.0516,0.0317,0.0098,-0.0033,-0.0211,-0.0273,-0.0188,-0.0213,-0.0294,-0.0285,-0.0391,-0.0392,-0.0392,-0.0393,-0.0393,0,0.0352,0.0389,0.0488,0.0547,0.0584,0.0671,0.0746,0.0782,0.0832,0.0837,0.0864,0.0745,0.0654,0.035,0.0128,-0.0182,-0.0223,-0.0329,-0.0321,-0.0292,-0.0312,-0.0302,-0.0293,-0.0394,-0.0394,-0.0395,-0.0395,0,0.0399,0.0434,0.0499,0.0624,0.0715,0.0819,0.0913,0.0959,0.0999,0.0993,0.0961,0.08,0.0635,0.0378,0.0139,-0.0084,-0.0268,-0.0337,-0.0337,-0.033,-0.0297,-0.0314,-0.0304,-0.0397,-0.0397,-0.0396,-0.0396,0,0.044,0.0496,0.0588,0.0697,0.0814,0.0925,0.0976,0.1034,0.1083,0.1067,0.1057,0.0864,0.0751,0.0428,0.0207,-0.0011,-0.0072,-0.0153,-0.0164,-0.0165,-0.0063,0.0015,-0.002,0,0,0,0,0,0.0476,0.0544,0.0654,0.0774,0.0889,0.0962,0.1068,0.1104,0.1133,0.113,0.1094,0.0937,0.0623,0.0482,0.0268,0.0178,-0.0122,-0.0084,-0.0224,-0.0408,-0.0406,-0.0324,0,0,0,0,0,0,0.0506,0.0604,0.0659,0.0815,0.0903,0.1042,0.1117,0.1146,0.1132,0.112,0.096,0.0873,0.0566,0.0748,0.0261,0.0194,0.0072,-0.0234,-0.0239,-0.041,-0.0408,-0.0406,-0.0321,0,0,0,0,0]}]]